Theta_e
312 311 310 310 310 311 312 311 311 311 312 316 317 317 316 312 307 306 306 311 311 313 314 310 311 312 314 312 313 314 316 317 319 322 325 326 325 323 320 315 317 321 320 319 318 320 323 325 327 328 328 328 329 330 329 326 325 324 327 329 330 327 322 320 321 325 328 329 327 325 324 324 324 322
311 310 309 309 308 309 309 308 308 308 309 310 311 312 315 316 309 308 305 307 312 312 312 312 308 310 310 311 310 311 312 314 316 318 320 322 320 316 317 315 316 316 316 315 312 315 319 322 325 329 330 328 328 329 328 326 325 327 330 330 329 327 323 322 323 326 328 327 325 323 323 324 322 322
310 309 308 308 308 308 307 307 306 305 306 307 308 309 311 313 314 310 306 303 308 313 308 310 309 308 307 309 307 308 310 312 314 315 316 319 316 316 319 314 313 312 313 312 313 318 319 318 320 324 328 328 328 327 328 330 329 330 329 326 324 325 324 321 323 327 328 327 326 325 324 323 322 322
309 308 307 307 307 307 307 306 305 304 304 306 306 307 308 308 311 310 309 303 303 308 306 307 306 306 305 307 305 305 307 310 312 313 314 318 315 318 319 317 311 310 310 312 315 320 321 320 321 323 326 328 328 328 328 330 329 327 323 321 321 322 321 320 322 327 328 327 326 325 324 324 322 322
308 307 306 306 307 307 305 305 304 303 303 304 305 306 306 306 308 306 307 302 300 303 305 304 304 304 304 303 304 303 304 306 309 311 312 315 315 316 317 316 310 307 308 308 308 310 313 316 321 323 324 327 327 323 322 323 320 322 322 319 318 317 319 318 317 321 326 325 325 323 323 323 321 320
308 307 306 305 306 306 304 304 303 302 302 302 302 303 304 304 305 305 304 302 299 298 301 301 303 302 303 301 303 302 303 304 307 308 310 313 313 315 314 312 311 307 307 307 308 307 308 310 314 317 315 315 316 317 315 316 315 318 318 314 315 318 320 321 317 317 323 325 324 322 321 320 319 319
307 306 306 305 305 305 303 303 303 302 301 301 301 301 303 303 304 304 304 301 298 297 298 300 300 300 301 300 300 302 304 305 306 306 307 310 311 314 312 309 309 306 306 306 308 309 307 308 308 311 312 312 312 312 313 313 313 313 313 311 313 315 316 316 315 314 322 325 323 322 321 319 319 320
306 305 305 305 304 304 302 302 302 302 301 300 300 301 302 302 303 303 303 302 299 298 297 298 299 300 299 300 301 303 304 304 304 305 306 308 307 311 311 308 306 306 306 306 308 308 309 307 307 307 309 311 311 311 311 311 312 310 311 311 311 312 312 312 311 311 315 322 323 322 320 319 320 321
305 305 304 304 304 302 301 301 300 302 300 300 300 300 301 301 302 302 302 301 300 298 297 297 299 300 299 300 300 302 301 302 303 304 304 305 305 307 311 308 307 305 305 307 309 307 308 309 306 306 306 307 308 309 310 309 310 310 310 310 310 310 310 310 310 309 310 314 315 322 322 317 320 323
305 304 304 304 304 302 300 300 300 300 301 300 300 300 300 300 301 300 300 300 299 298 298 297 297 298 298 298 299 301 302 301 300 301 302 303 304 304 308 306 305 305 305 306 310 307 307 310 309 306 306 306 306 306 306 307 308 308 309 309 309 309 309 309 309 308 308 310 311 314 317 315 318 322
305 304 304 304 304 302 300 299 299 299 300 301 299 301 300 300 299 299 299 299 299 298 297 297 297 297 298 298 297 300 302 301 301 299 299 299 302 303 307 303 303 303 303 305 307 307 307 308 308 308 306 306 305 306 305 306 307 307 307 308 308 308 308 308 308 307 307 308 309 310 311 313 317 322
303 304 303 302 303 303 301 300 299 299 299 300 299 299 300 299 299 298 298 298 298 298 297 297 296 297 297 298 298 300 300 299 299 300 299 297 298 300 304 305 299 300 301 301 305 308 307 307 306 305 305 304 305 305 305 307 307 308 307 306 306 307 307 307 307 307 307 307 308 308 308 308 310 316
301 301 303 303 303 306 307 303 302 302 303 300 298 298 299 300 298 298 298 298 297 297 297 296 297 296 296 296 296 296 296 296 296 299 298 297 298 299 301 304 301 299 298 299 302 307 306 306 305 304 304 304 304 303 302 301 302 302 302 304 305 305 306 306 307 307 306 307 308 307 307 307 307 309
300 300 299 303 306 305 305 302 299 298 299 301 301 297 298 298 298 297 297 297 297 297 296 296 296 295 295 295 296 295 296 297 298 297 296 295 297 298 299 300 301 298 297 297 298 303 307 306 304 302 302 303 304 302 301 301 300 300 299 299 302 304 304 305 305 306 306 306 306 306 306 306 306 306
298 298 299 298 302 302 302 300 298 298 298 297 296 297 298 301 299 297 297 297 297 297 296 296 296 295 294 295 297 296 296 296 295 296 296 296 296 295 295 293 299 299 296 295 296 299 304 306 302 301 301 301 301 301 300 299 299 299 299 299 299 301 303 304 304 305 305 305 305 306 305 305 306 305
297 297 297 297 298 299 300 299 297 301 301 298 296 296 296 296 296 297 298 298 297 297 296 296 296 295 295 295 296 295 295 294 294 295 294 295 294 294 294 294 294 297 297 294 294 296 301 304 304 299 300 301 300 300 299 299 298 298 299 299 298 298 300 302 303 304 304 304 304 305 305 304 305 304
295 295 296 296 296 296 301 300 296 299 301 302 301 300 299 301 299 295 295 296 300 297 297 296 296 296 296 295 295 296 295 295 293 294 293 294 294 294 293 293 296 296 297 294 293 293 298 301 302 298 299 300 300 299 299 298 298 298 298 298 298 298 298 299 302 302 303 303 303 303 303 303 303 303
294 295 294 294 294 294 295 295 296 298 299 300 300 299 299 300 302 299 297 297 297 299 300 298 296 297 297 295 295 297 296 295 294 293 293 294 294 293 293 295 296 297 297 293 292 293 295 299 299 298 298 299 298 298 298 297 297 297 298 298 297 297 297 298 299 301 302 302 302 302 302 302 302 303
294 294 294 294 293 293 293 294 295 297 297 297 298 297 297 298 299 299 298 298 298 298 299 299 298 298 298 297 296 296 296 295 295 295 294 295 295 295 296 295 296 295 296 295 293 289 294 298 297 298 297 297 296 297 297 296 296 297 297 297 297 297 297 297 298 299 301 301 301 302 302 301 301 301
294 294 293 293 292 293 293 294 292 295 298 296 296 296 296 297 297 299 303 298 297 298 297 299 299 298 297 296 296 296 296 296 296 296 296 295 294 293 292 291 293 293 295 295 293 291 293 295 295 297 298 296 294 295 295 296 296 296 296 296 297 297 297 297 297 298 300 301 301 301 301 301 301 301
295 296 295 292 292 292 292 293 291 292 297 295 295 295 294 295 296 297 300 300 297 295 294 294 295 294 294 294 295 294 294 296 297 295 293 292 293 291 290 290 291 291 293 294 294 293 291 293 294 293 296 295 293 293 293 294 295 295 295 296 296 296 297 297 297 298 299 300 300 301 301 301 300 301
293 297 302 300 292 292 292 291 291 292 296 294 293 293 293 294 294 295 298 301 300 297 296 295 294 294 294 295 295 295 295 295 296 294 291 292 292 290 291 289 291 292 293 294 295 292 290 292 294 292 293 294 293 293 293 293 294 294 294 295 295 295 296 297 297 298 298 299 300 301 300 300 300 304
293 293 296 299 295 293 292 291 291 291 295 293 292 292 292 293 293 294 296 297 296 297 296 297 298 297 299 300 298 299 296 296 298 295 294 293 291 290 291 291 291 290 291 294 296 291 290 291 292 291 289 288 291 293 293 293 293 293 293 293 293 295 296 296 297 297 298 298 299 300 300 300 301 307
291 292 293 296 292 291 291 291 291 291 292 294 292 292 291 291 292 295 297 298 297 296 296 295 296 296 297 297 297 296 296 298 298 295 295 294 293 291 291 292 291 289 290 294 296 292 292 292 290 292 290 287 285 290 292 291 292 292 292 292 292 293 294 295 296 296 296 298 298 299 299 299 301 307
292 291 292 292 294 291 291 290 291 291 292 293 294 292 291 291 293 296 295 297 298 295 296 296 296 296 295 296 296 295 295 296 296 296 295 295 294 292 291 290 291 291 292 295 295 294 291 292 290 291 290 290 289 288 290 291 292 292 292 291 291 292 293 293 294 295 296 296 296 297 298 298 301 304
290 290 291 291 294 291 290 290 291 291 291 292 295 292 291 292 292 296 296 295 295 294 294 294 293 294 294 294 294 296 296 295 296 294 294 294 294 294 293 291 290 290 291 295 295 294 292 291 291 290 290 289 289 289 288 289 291 291 292 291 291 291 292 292 292 292 294 296 296 295 296 296 297 298
291 291 291 293 296 290 290 290 291 291 292 293 292 291 291 292 292 294 294 294 293 292 292 293 292 292 293 293 293 293 293 294 293 294 294 294 294 295 295 294 292 291 292 294 296 294 293 292 293 291 290 290 288 288 288 287 288 291 291 291 291 291 292 292 291 291 291 291 293 295 295 294 294 294
291 291 290 292 291 290 290 290 292 292 292 292 291 291 292 292 292 293 292 292 292 291 291 290 291 291 291 293 293 293 294 295 294 295 293 293 293 293 294 294 294 294 294 294 294 294 293 292 292 293 292 291 288 287 286 289 290 290 289 290 291 291 291 291 290 291 291 291 291 291 293 294 295 295
292 292 291 290 290 290 291 292 293 293 292 291 292 292 292 296 291 291 290 291 291 290 290 290 290 290 292 292 293 294 294 294 295 294 296 294 293 292 293 293 293 294 295 295 294 293 293 293 291 292 292 292 290 290 289 287 289 289 289 288 287 290 290 291 290 289 290 290 290 290 289 291 293 295
291 291 291 292 291 292 292 292 291 292 293 292 292 293 294 292 290 290 290 290 290 289 289 289 289 289 290 291 293 293 294 293 293 292 292 291 292 293 292 292 292 293 294 294 293 293 293 293 292 292 291 291 292 290 289 288 287 289 290 289 289 290 291 290 290 290 289 288 289 288 289 290 291 293
290 292 293 292 292 291 291 291 292 292 292 292 293 291 291 292 290 292 289 289 289 289 289 289 289 288 290 291 291 291 292 292 293 293 292 292 290 291 291 290 289 291 293 293 294 293 292 293 293 293 291 290 291 290 290 290 288 288 289 290 290 286 289 290 290 290 290 289 289 289 289 289 289 290
289 290 292 292 290 289 290 289 290 289 291 290 289 291 290 290 291 293 294 293 289 289 289 288 288 289 289 289 289 289 289 290 291 291 292 292 291 291 290 287 287 288 289 291 293 293 293 293 293 293 292 291 289 289 291 291 290 289 289 290 290 290 291 290 290 290 290 290 288 287 288 288 287 287
289 288 288 288 286 287 283 285 287 287 288 286 289 290 291 291 290 290 287 289 287 287 287 288 287 287 288 288 288 288 289 289 289 289 290 290 291 291 290 288 287 287 287 289 290 292 290 290 292 293 292 291 291 290 290 289 290 291 290 290 290 290 290 291 290 290 291 289 288 287 286 289 290 290
284 285 283 283 283 285 283 282 282 284 284 284 285 287 288 288 288 289 288 287 288 288 287 286 286 286 286 286 287 287 287 288 289 288 289 288 289 288 288 287 287 286 286 287 288 290 290 289 288 290 290 291 292 291 291 290 289 291 291 291 291 290 291 291 291 290 290 289 288 286 286 287 290 291
282 283 284 283 283 283 283 282 282 282 282 281 283 284 284 285 286 286 288 288 284 285 286 286 285 284 286 285 285 286 286 286 287 288 287 288 288 287 287 287 287 286 286 286 286 289 289 288 287 287 288 288 289 291 294 291 289 290 291 291 291 290 290 290 289 289 289 289 289 286 286 286 287 290
283 282 283 283 283 283 284 284 283 282 282 282 282 282 283 283 283 284 285 285 285 283 284 285 285 284 285 284 284 283 284 284 285 285 285 285 285 285 286 286 285 286 286 285 287 287 286 286 286 286 284 283 285 286 289 293 292 288 289 288 290 289 288 288 288 288 287 287 287 287 285 285 286 289
283 284 284 284 284 283 283 284 283 283 284 283 282 282 282 282 284 284 285 284 284 283 283 284 285 284 283 284 284 284 283 284 283 284 284 284 283 284 284 285 284 284 285 285 286 287 287 287 286 285 282 282 282 283 285 287 290 291 289 287 286 286 285 286 286 286 286 287 287 287 286 286 286 287
285 285 284 285 285 286 284 284 283 283 283 282 283 281 282 283 283 283 283 283 282 281 283 283 284 284 284 283 283 284 283 283 283 283 283 283 284 283 282 283 283 284 284 286 286 285 286 287 286 284 283 281 279 279 281 284 281 286 290 288 285 283 284 286 286 286 286 285 284 284 284 285 285 285
287 285 285 284 286 286 284 284 284 284 284 282 282 281 281 281 282 281 281 281 281 282 281 283 283 283 284 284 283 282 283 283 283 283 284 283 282 282 282 283 284 283 283 284 285 285 285 284 285 286 285 282 281 282 280 280 283 284 287 291 288 285 283 285 285 283 282 282 283 283 283 283 286 288
286 286 286 286 286 286 285 285 283 285 284 283 282 282 281 281 281 281 281 281 280 281 280 281 282 284 283 283 284 283 285 284 283 282 283 283 283 282 282 281 282 281 282 283 284 284 284 285 285 287 286 288 287 285 283 282 283 281 283 288 291 289 286 283 282 284 283 282 283 282 281 280 280 282
286 287 287 287 286 286 285 284 284 284 284 284 283 285 282 281 281 281 282 282 281 280 280 279 280 280 280 281 282 281 282 283 284 283 282 284 284 283 283 284 283 281 281 282 282 283 284 285 286 287 288 286 285 285 282 281 282 281 281 283 288 291 290 289 287 282 282 282 282 281 279 279 278 278
285 285 285 287 286 286 286 286 284 283 284 283 283 284 283 281 282 286 282 282 280 279 279 279 279 280 281 281 281 282 281 282 282 283 282 282 283 283 283 281 282 282 281 281 281 283 285 286 285 288 288 286 282 281 280 278 279 281 281 282 282 287 291 291 290 288 287 285 282 279 280 279 278 279
285 285 285 285 286 287 286 285 285 283 285 284 283 282 282 282 282 280 280 280 280 280 280 280 279 279 279 280 280 281 281 281 281 282 280 282 282 282 282 281 281 282 282 281 283 284 284 285 285 282 283 281 281 280 279 280 279 279 281 282 284 283 283 288 289 289 289 289 287 283 279 280 280 279
285 286 285 285 286 286 286 286 285 284 284 284 283 283 282 281 281 281 279 280 281 282 280 281 280 280 279 279 280 280 280 280 281 281 281 282 282 282 281 281 282 281 281 282 283 283 283 283 283 283 281 281 280 280 281 279 280 281 281 281 281 281 283 283 282 286 287 287 287 287 288 288 287 288
286 286 285 285 286 285 285 284 284 285 283 283 283 282 282 281 282 280 280 279 280 281 280 280 280 280 279 279 280 280 280 284 282 281 281 280 281 282 282 281 282 281 281 280 282 283 282 282 283 282 282 281 281 281 282 282 282 281 281 280 282 282 281 283 284 283 282 282 286 286 285 287 287 287
Wind_Speed
8 9 10 9 9 9 9 9 9 9 9 9 9 8 5 5 6 8 8 8 9 9 10 8 10 13 11 12 12 12 12 16 19 13 12 12 12 17 16 15 17 18 18 19 22 22 22 20 19 20 21 21 21 21 20 19 19 19 23 24 21 19 15 16 17 19 21 22 21 20 21 22 19 20
7 8 9 8 8 8 9 9 10 10 9 9 9 9 8 4 6 4 7 6 7 8 7 7 10 13 13 11 12 11 11 17 18 13 12 12 15 22 23 16 18 16 15 14 12 15 18 21 18 19 22 21 21 21 21 20 20 22 23 22 21 19 16 18 18 19 20 21 20 20 21 21 19 20
7 8 9 9 9 8 9 9 10 10 10 9 8 9 9 9 5 4 5 6 7 8 10 8 11 12 13 11 12 11 11 14 16 12 12 13 18 20 18 21 10 8 10 10 11 16 19 21 21 19 22 22 20 20 21 24 23 23 24 21 21 19 17 18 20 21 21 20 20 22 22 20 19 20
8 9 10 10 9 9 8 9 10 10 10 9 8 9 8 9 9 8 5 8 7 9 10 9 11 13 12 10 14 14 11 12 17 12 11 12 17 13 13 19 21 15 12 12 12 19 20 22 22 24 23 21 22 21 20 22 22 22 22 22 21 20 17 18 19 22 22 20 21 22 21 21 19 20
8 9 10 10 10 9 9 9 9 10 10 10 9 8 9 9 10 10 7 9 8 8 8 8 9 11 12 11 14 14 13 13 13 13 11 11 12 12 12 13 19 25 23 13 14 14 17 20 24 23 20 19 20 20 19 19 20 21 22 22 22 21 19 19 19 20 22 22 22 22 22 20 19 20
7 7 9 10 10 9 9 9 10 9 10 10 10 10 9 9 9 11 10 9 9 10 8 10 9 10 12 11 13 13 14 14 13 13 12 10 10 9 11 11 12 24 21 23 17 13 15 15 18 20 20 18 17 19 18 19 20 21 22 22 22 22 21 21 20 21 22 23 24 23 23 22 20 20
5 7 8 9 8 8 9 8 8 9 10 9 10 10 9 9 10 11 11 9 9 10 8 9 11 11 11 11 13 13 10 10 10 12 12 11 10 7 10 10 10 18 21 22 20 16 11 14 14 17 19 20 19 16 18 21 20 21 20 21 23 23 22 21 23 23 24 25 25 25 24 23 22 23
6 6 6 7 7 7 8 8 7 7 9 10 9 10 9 9 10 9 8 9 6 7 9 10 10 10 10 11 11 11 9 10 11 10 10 10 12 8 9 12 12 16 21 20 22 26 21 10 12 13 15 19 21 18 16 18 20 20 21 21 22 23 22 22 20 20 23 24 25 25 25 24 24 25
6 6 6 5 5 6 8 7 7 6 8 9 9 9 9 9 8 7 7 7 7 8 10 8 8 8 8 7 9 12 13 12 10 11 12 11 11 10 8 10 12 19 21 20 20 24 22 17 10 10 11 13 15 17 17 16 17 20 21 22 23 23 23 24 22 22 23 23 24 25 25 24 24 26
6 7 7 6 5 6 6 6 6 6 6 7 10 9 8 7 6 6 6 6 8 8 8 9 10 11 12 11 10 12 12 12 14 13 13 11 12 12 11 11 12 12 13 13 13 17 17 21 15 8 10 10 11 12 13 13 13 15 18 21 22 22 24 24 24 24 24 23 23 24 25 25 25 26
7 8 7 7 6 6 5 5 6 6 7 6 8 8 7 5 6 7 6 6 8 9 9 9 9 9 10 9 12 12 10 10 10 13 13 14 12 12 10 12 12 13 14 14 14 16 16 18 17 18 13 10 10 11 11 11 12 12 14 18 20 22 23 24 25 24 24 25 24 24 25 25 26 26
5 5 7 8 7 5 5 5 5 4 6 6 6 6 6 6 6 6 6 7 7 9 9 10 10 10 10 11 9 8 10 11 12 13 11 12 13 13 10 10 14 14 14 14 12 12 15 14 17 17 18 23 26 22 11 12 12 12 14 16 19 20 21 23 24 24 25 24 25 25 24 25 26 26
9 8 6 7 8 11 12 12 8 7 3 4 5 6 5 5 5 5 6 6 6 7 8 9 9 10 12 12 13 14 14 13 12 11 11 9 10 9 9 7 11 14 14 12 11 11 12 11 12 11 11 14 17 17 20 17 20 20 15 14 16 16 19 21 22 23 23 25 27 25 25 26 26 25
7 7 7 7 16 15 14 12 11 10 7 3 1 2 4 5 5 5 6 7 6 7 9 10 9 12 13 13 13 13 11 10 10 11 12 12 11 10 8 7 8 15 15 13 12 11 10 9 9 11 12 12 13 11 12 12 15 16 17 17 13 14 16 19 21 23 25 26 24 23 25 26 26 26
7 6 6 6 10 12 11 9 12 11 9 6 5 6 5 5 4 5 8 7 6 7 8 8 9 10 11 13 12 12 12 11 11 10 10 10 11 12 12 13 7 12 15 12 11 10 12 10 9 10 11 11 10 11 12 19 19 18 18 18 17 13 14 17 19 21 23 23 24 24 24 25 27 26
6 6 7 7 6 8 10 9 10 11 13 8 4 7 9 8 8 5 5 6 6 6 8 9 10 9 11 11 12 13 13 13 12 11 10 11 11 11 12 11 11 12 15 12 8 9 10 11 7 9 10 9 10 11 17 21 20 20 19 18 18 17 13 14 17 19 20 21 23 26 27 28 28 28
7 7 8 8 9 8 15 11 9 7 9 11 9 5 5 5 11 12 13 11 6 4 7 9 10 10 9 12 13 13 13 11 11 12 12 11 10 10 11 11 9 12 14 11 9 9 10 10 9 8 8 9 9 11 16 23 22 21 20 18 18 18 17 13 16 17 19 21 20 20 21 24 26 26
7 7 8 8 9 9 10 10 10 9 9 8 9 8 7 6 7 10 11 12 12 7 6 8 10 8 9 10 9 11 11 12 12 12 13 11 11 12 11 10 9 9 12 12 9 6 11 11 9 7 8 8 9 10 16 21 22 21 21 20 19 18 18 17 13 17 19 19 21 22 21 21 23 25
8 7 7 7 8 8 9 9 11 9 8 8 8 8 8 6 6 5 5 6 6 5 5 8 9 8 8 8 10 9 9 10 8 8 9 9 8 5 4 4 8 9 12 14 10 7 9 10 10 5 7 8 10 10 13 21 23 23 21 20 20 19 19 17 14 15 18 19 20 23 24 25 25 24
6 6 7 7 8 7 8 12 16 13 8 9 8 9 8 8 7 6 6 6 8 7 4 7 9 7 8 11 10 10 10 9 8 8 7 6 7 9 10 12 10 11 11 14 10 7 10 11 10 8 4 9 11 11 11 16 23 24 22 20 20 20 19 20 16 12 17 19 21 21 22 23 26 28
6 6 7 7 7 7 7 11 14 15 11 8 9 8 8 7 7 7 8 9 13 13 12 7 14 13 13 13 13 14 15 12 9 7 9 13 10 12 11 12 11 11 12 13 13 8 11 13 12 10 5 7 10 12 13 13 17 24 21 22 23 23 21 21 20 12 13 18 20 22 22 22 23 27
6 8 14 10 7 7 7 12 13 13 9 8 8 8 8 9 9 9 7 5 9 13 12 11 9 10 10 11 12 13 14 15 12 12 14 9 9 12 11 11 10 9 12 14 13 8 11 10 11 11 9 3 7 11 12 14 14 18 17 22 22 24 22 22 23 18 9 15 19 21 24 23 21 16
6 6 7 11 10 8 10 14 13 12 8 7 6 6 8 9 9 7 5 5 7 6 7 8 7 6 7 6 5 8 14 15 13 11 9 7 9 10 10 10 9 5 10 13 14 10 11 12 12 10 8 8 7 10 12 13 13 13 13 14 15 24 23 22 22 23 12 9 14 18 21 23 22 14
5 5 6 7 10 12 13 13 13 12 10 7 7 7 8 8 8 5 8 8 5 5 6 5 6 6 5 4 5 5 7 9 9 10 9 8 8 8 8 9 10 10 9 11 13 7 7 9 10 11 9 8 10 11 10 12 13 14 14 14 13 20 21 21 18 23 23 3 6 9 13 16 18 11
5 5 5 5 8 11 11 11 12 11 11 9 7 7 6 5 5 8 8 10 11 6 6 6 6 6 6 4 4 5 5 6 6 7 8 8 8 8 8 8 9 8 8 10 13 7 8 9 10 9 10 7 7 9 10 9 12 13 15 13 13 14 13 14 13 14 19 19 9 9 11 13 17 10
3 2 2 3 6 10 10 10 11 12 11 10 7 10 14 16 15 9 6 7 7 7 7 7 6 6 6 6 5 4 5 5 5 5 6 7 7 7 6 6 7 8 9 10 13 9 9 12 11 9 9 9 9 9 10 10 11 12 13 14 13 13 13 13 14 15 14 12 13 17 15 14 10 8
1 0 2 3 7 9 9 10 10 11 11 8 8 14 15 15 15 11 7 7 8 7 7 7 6 6 6 7 6 5 3 3 3 4 4 5 6 7 6 6 5 5 4 6 8 8 8 8 10 11 10 8 9 9 11 11 11 12 11 14 14 13 13 12 14 14 14 14 13 21 22 24 24 21
0 1 2 4 8 9 7 7 8 11 10 8 11 11 13 14 11 8 8 8 7 7 7 7 7 7 6 6 6 5 2 1 3 3 3 4 4 5 7 7 6 6 6 7 7 7 8 8 9 10 10 10 10 12 10 10 10 12 12 11 12 13 13 13 13 13 13 14 15 15 14 12 11 13
1 4 7 9 9 8 7 6 5 7 10 12 13 12 11 10 7 7 7 7 7 8 7 7 6 6 6 5 4 5 5 2 1 1 1 1 1 2 4 5 6 6 6 6 7 7 7 8 8 7 10 10 10 10 10 11 10 12 12 10 11 14 13 12 12 13 13 14 15 18 16 14 12 10
7 7 8 8 8 7 6 4 4 4 6 10 12 12 9 5 7 6 7 6 7 7 7 6 7 6 6 5 7 5 5 7 7 4 2 1 1 2 4 7 7 6 6 6 6 6 7 8 7 6 9 10 10 10 9 9 11 10 12 12 9 6 13 13 13 13 14 14 14 14 13 15 14 14
5 6 5 3 2 6 8 7 6 5 6 7 7 6 6 5 5 6 5 5 6 6 6 6 6 6 6 6 7 7 7 7 8 7 4 5 4 0 1 5 3 4 5 4 5 6 5 6 8 8 9 8 9 10 9 8 9 10 11 11 12 13 10 12 12 12 11 12 13 14 14 14 14 16
2 2 4 6 6 7 7 7 7 6 5 5 5 6 6 5 4 6 7 7 5 4 4 5 6 6 6 7 6 6 7 7 7 7 8 6 7 5 3 2 2 1 2 3 5 5 5 5 8 8 8 7 8 6 7 9 9 9 9 10 10 10 10 10 11 11 11 12 15 15 12 13 15 14
4 5 7 6 6 6 5 5 5 6 7 5 4 5 6 7 6 6 7 6 6 6 6 6 6 6 6 7 7 7 7 7 7 7 8 8 7 7 7 7 6 1 2 1 2 2 3 4 5 8 8 8 7 5 6 8 9 8 8 9 9 9 9 9 9 9 9 13 14 14 14 11 11 11
2 3 5 5 4 4 4 4 4 4 5 5 6 6 5 6 6 6 6 5 5 6 6 6 5 6 5 7 6 6 7 7 7 7 7 7 6 7 6 6 7 6 2 1 1 1 1 3 4 6 5 5 6 7 6 7 7 7 8 7 7 9 8 8 9 10 10 9 9 12 12 12 10 10
3 3 5 2 3 3 3 3 2 3 4 4 5 5 5 6 6 4 5 5 4 5 6 6 5 4 6 5 5 6 6 7 7 7 7 7 7 6 6 6 7 7 6 6 3 2 1 4 5 6 6 7 6 6 9 6 5 6 6 7 7 7 8 7 7 8 8 9 8 11 10 9 9 9
3 1 5 4 3 2 4 2 2 3 4 4 4 4 6 4 4 5 4 2 5 4 5 6 6 5 5 4 5 5 6 5 7 7 7 7 7 7 7 6 5 5 5 4 4 2 1 3 5 7 6 6 6 6 6 10 9 3 6 5 6 6 6 6 7 7 8 8 8 8 9 9 8 8
1 2 4 4 4 4 3 1 4 3 4 4 4 4 4 3 2 3 2 2 5 4 3 3 5 4 4 5 4 5 4 5 5 6 6 6 5 6 7 7 6 6 6 5 3 4 2 4 3 6 6 6 6 6 4 3 7 7 4 6 4 4 4 4 6 8 7 6 7 7 7 7 7 6
0 2 5 4 4 4 3 3 3 3 4 4 4 4 4 3 2 2 3 5 4 4 5 4 4 5 5 4 4 5 4 4 4 6 6 5 6 6 4 5 6 7 6 6 6 6 3 4 4 4 6 6 6 4 4 4 3 6 7 4 6 2 3 6 7 6 6 5 6 4 4 6 5 3
1 2 4 3 3 4 4 3 4 4 3 4 4 4 3 3 3 3 3 3 3 4 4 5 5 4 5 6 5 3 5 7 7 6 5 5 4 4 4 5 6 6 6 8 8 7 6 6 2 3 6 5 3 1 3 2 2 2 7 6 6 5 1 5 6 5 5 4 5 5 5 3 5 8
4 3 3 4 3 3 3 2 4 4 4 3 4 5 4 3 3 2 1 2 3 3 3 3 3 5 5 6 6 5 4 6 4 4 6 5 5 4 4 2 3 4 5 7 7 8 7 7 1 5 4 6 5 4 5 4 1 1 3 7 5 5 6 4 4 5 4 3 3 5 4 3 4 2
2 1 2 3 4 3 4 4 3 3 4 3 3 3 3 3 3 2 1 0 3 4 3 3 4 3 3 4 4 3 4 5 6 5 4 5 6 5 6 6 6 4 4 6 6 7 7 7 6 3 8 5 3 2 3 4 3 2 4 4 8 1 6 5 6 5 4 3 5 6 6 3 3 1
5 4 3 3 4 3 4 4 3 4 4 3 3 3 2 1 1 4 3 2 3 3 3 2 2 3 4 4 4 4 3 3 4 5 4 3 6 6 6 4 6 6 5 5 4 6 6 3 3 1 7 6 3 2 1 2 2 1 0 1 2 5 1 6 7 5 7 7 5 3 2 1 2 1
4 5 5 4 3 3 3 3 3 4 4 4 2 2 2 2 1 2 3 2 1 2 2 1 1 2 3 3 3 2 2 4 3 3 3 3 4 5 5 4 3 3 3 3 4 4 7 7 6 3 0 2 1 3 4 5 4 2 1 0 0 1 1 5 2 2 3 6 6 4 5 5 4 2
4 4 5 5 5 4 4 4 4 3 4 3 3 3 2 3 2 2 3 3 1 0 0 0 0 1 2 3 2 4 3 3 1 3 3 3 2 2 3 4 4 4 4 5 6 7 7 6 6 6 5 3 0 4 6 3 3 6 4 2 1 1 2 1 0 2 3 4 5 6 5 5 6 6
5 6 6 5 6 4 3 3 3 3 4 3 2 3 3 3 2 3 2 3 2 0 0 0 1 1 2 3 2 3 4 3 2 3 2 2 3 3 3 3 4 4 4 3 4 6 6 6 5 3 3 6 1 3 7 7 6 5 3 2 3 4 4 3 3 5 4 4 6 4 5 6 6 8
Wind_Direction
25 27 25 27 21 16 10 11 9 2 357 353 354 355 11 25 23 6 1 16 5 7 12 7 360 9 1 2 359 357 358 357 360 358 359 0 353 328 282 242 232 232 231 214 215 209 207 211 219 212 207 207 202 198 197 192 194 193 196 201 206 206 201 192 199 198 195 192 188 182 180 184 177 166
25 29 32 28 27 13 17 17 12 10 5 4 3 357 352 28 39 21 13 359 8 351 3 19 3 4 359 4 359 358 354 353 357 358 355 359 355 351 346 274 235 227 233 228 216 223 213 214 218 222 215 212 206 199 197 194 192 198 201 201 206 202 197 188 195 198 193 191 185 183 183 183 173 169
26 27 29 25 25 15 17 19 17 14 11 6 5 2 0 1 15 21 33 13 4 4 2 5 13 3 356 1 358 358 356 353 354 355 355 357 355 359 359 7 312 260 242 226 205 212 215 213 214 222 219 215 212 209 202 201 198 200 203 202 204 203 194 189 190 195 196 192 186 185 184 182 175 169
31 31 31 26 23 15 18 23 19 16 13 10 10 7 4 4 8 7 43 36 8 14 8 1 1 1 355 358 3 359 354 351 354 354 353 355 2 4 9 17 20 352 303 267 231 220 219 216 215 218 222 216 208 210 210 204 204 201 199 200 202 203 195 191 192 194 195 191 185 186 187 184 178 171
39 36 36 28 24 18 26 25 22 21 14 13 13 11 12 13 15 13 23 35 16 13 10 3 1 352 356 2 4 359 355 352 351 351 353 0 7 9 13 6 9 7 4 332 272 256 224 214 218 220 224 224 220 213 209 209 203 200 200 200 199 200 196 191 192 193 192 189 187 188 187 186 181 173
39 37 38 31 24 20 25 26 29 21 20 17 17 16 14 17 22 20 29 34 23 6 357 4 358 2 3 359 3 0 353 350 349 350 353 0 8 14 15 6 5 5 358 359 347 272 268 239 217 216 214 221 227 216 209 210 203 205 202 199 199 200 198 192 190 191 192 189 186 188 186 183 180 178
44 40 39 32 24 18 24 21 22 25 27 24 25 20 17 19 23 27 35 29 24 13 4 359 3 3 1 7 355 354 353 346 345 351 357 358 360 15 16 9 8 4 360 358 359 351 275 258 254 229 215 214 219 220 210 204 205 205 202 200 200 199 198 196 193 191 191 189 188 184 183 182 179 178
53 45 42 34 27 19 23 17 14 18 28 31 28 27 21 23 25 27 30 32 30 13 13 8 8 1 357 1 358 352 354 356 357 359 349 355 1 6 14 13 10 3 1 360 7 5 358 302 252 255 249 223 218 220 214 210 205 203 203 200 203 200 197 199 196 194 194 192 190 186 183 182 180 180
63 52 48 37 32 27 25 13 15 2 22 30 33 32 26 27 25 28 27 29 26 24 24 8 7 360 7 358 356 0 357 356 3 2 3 359 356 360 18 13 9 3 2 1 3 8 2 355 302 270 254 263 255 234 219 213 213 208 206 205 203 202 199 198 193 194 200 195 191 189 186 184 184 184
65 58 47 38 39 34 30 7 8 5 10 22 36 34 28 24 22 22 20 24 26 30 25 17 6 12 6 3 8 1 358 359 359 3 2 360 3 358 10 17 11 7 3 357 359 7 3 6 1 291 278 284 279 283 281 261 234 223 213 210 206 203 203 199 195 194 196 197 192 189 186 185 186 185
68 61 51 41 38 43 29 8 4 6 10 16 29 34 26 16 21 22 18 16 28 27 24 19 17 8 11 8 3 359 357 360 7 2 357 4 359 358 11 15 11 7 1 357 354 11 5 15 21 24 21 357 313 287 286 271 273 263 242 223 214 210 207 204 198 194 197 197 194 191 186 184 185 186
54 57 56 48 34 40 41 16 344 8 16 8 16 16 30 17 21 25 16 22 26 28 25 22 13 13 3 8 10 357 359 5 11 14 5 357 355 355 0 35 16 3 1 356 349 5 8 15 15 19 24 19 19 15 338 325 317 281 259 247 229 218 212 211 205 199 196 195 198 192 186 183 186 187
43 37 29 33 31 27 30 25 14 342 359 36 11 348 18 21 19 20 24 20 29 31 29 24 20 15 15 12 5 8 12 11 2 350 356 353 356 350 350 21 33 13 1 351 347 2 9 6 13 8 17 18 17 19 20 13 5 1 339 282 252 235 220 215 212 204 200 199 198 193 187 183 184 187
43 43 33 21 25 25 24 18 9 3 341 329 6 320 337 30 19 18 22 28 29 32 31 27 17 22 22 11 8 5 8 1 358 2 2 0 354 351 3 4 39 14 7 356 352 350 3 5 13 16 18 13 16 15 14 4 2 360 358 353 313 257 235 221 217 213 204 200 198 194 189 183 184 186
41 34 31 23 19 19 17 14 12 6 356 322 316 322 345 2 50 20 26 32 30 35 38 28 28 30 23 17 6 6 358 7 9 9 3 0 1 5 3 0 4 25 6 355 346 345 358 355 19 20 16 11 13 15 9 2 3 360 359 354 350 321 255 238 226 217 213 208 199 195 190 185 183 184
44 37 33 29 23 19 21 28 11 7 7 4 303 304 318 348 47 59 68 41 33 39 44 38 33 28 29 16 12 9 6 5 7 13 9 9 7 7 11 2 9 7 3 350 342 342 356 351 15 24 15 10 12 9 4 4 3 3 359 356 352 347 317 254 235 228 220 214 203 195 192 189 184 181
46 40 35 32 26 14 19 21 13 18 13 11 14 348 348 8 37 23 24 43 61 67 60 55 42 35 27 26 22 16 11 5 16 10 15 9 9 12 15 8 0 5 1 353 353 345 348 353 358 27 10 7 8 4 6 3 2 1 360 355 352 347 342 304 251 234 224 212 208 208 201 190 183 178
50 42 43 38 29 20 24 17 12 18 18 15 19 20 16 8 1 14 19 23 47 56 74 67 62 43 42 44 31 25 20 21 18 14 18 6 10 15 13 1 360 8 7 8 334 321 351 0 348 28 5 9 9 8 2 2 3 359 357 356 352 348 342 332 284 239 226 219 205 198 198 193 185 180
54 46 44 43 38 28 25 18 17 21 13 20 17 14 11 10 4 359 359 20 32 60 76 79 77 67 58 54 46 40 38 33 24 20 15 6 3 353 339 7 10 12 14 7 0 351 335 352 349 19 12 10 12 4 0 3 2 359 357 354 352 347 342 335 312 257 229 216 212 204 194 190 184 179
59 55 48 42 35 28 26 8 15 16 20 26 19 12 4 6 8 9 348 351 50 76 102 105 89 83 78 68 55 44 38 35 27 25 24 21 24 22 21 21 3 17 6 10 2 344 352 345 347 341 1 19 11 2 4 357 360 358 355 355 354 352 347 339 326 273 233 217 207 204 201 193 185 177
53 52 50 45 33 23 20 10 19 14 24 29 20 14 10 10 15 9 353 1 32 51 69 90 114 101 77 64 55 44 36 34 25 24 30 26 15 27 23 17 10 14 6 8 5 347 356 350 349 342 335 31 10 8 3 359 358 356 353 355 356 355 353 350 341 310 234 218 207 199 196 195 190 181
40 34 38 43 34 22 9 10 24 19 27 33 21 20 19 16 18 11 357 4 38 36 41 58 101 124 96 68 52 42 37 32 28 35 37 7 12 29 25 18 4 2 14 10 359 4 11 341 358 351 336 335 23 11 6 360 358 358 358 358 357 358 358 358 357 342 268 220 210 203 194 188 184 177
40 26 20 24 27 23 11 12 15 25 31 42 29 25 29 21 23 1 360 26 44 29 36 23 38 62 69 62 45 38 37 35 39 43 43 20 31 32 24 22 4 355 18 5 357 15 5 2 3 0 352 7 354 8 3 3 1 1 359 358 359 4 2 4 5 3 335 233 214 207 199 193 184 181
27 23 16 10 14 16 14 11 11 21 39 46 35 37 36 24 14 339 31 24 34 42 48 34 33 45 61 63 47 38 35 37 44 45 40 38 37 34 29 27 29 35 9 354 356 19 11 9 9 7 15 5 2 346 351 3 6 3 2 0 5 5 6 10 10 10 9 312 193 199 195 182 177 174
54 14 2 348 1 10 11 11 11 30 35 43 50 43 45 35 17 31 35 25 27 23 21 30 28 31 42 52 48 42 40 38 41 49 45 48 43 39 34 26 27 36 14 356 350 32 23 12 16 8 16 25 3 356 351 354 5 8 6 3 4 7 10 14 18 14 18 17 42 118 145 169 183 165
50 4 351 338 346 2 4 10 23 37 39 41 48 41 39 32 32 34 32 31 28 23 26 28 24 15 26 45 42 40 47 39 40 44 56 51 51 48 44 41 35 33 7 345 359 25 30 27 12 16 18 18 11 11 1 3 5 3 7 9 11 9 13 20 26 22 17 28 35 44 56 60 32 136
149 257 323 322 348 357 357 2 21 42 43 45 46 46 43 37 32 33 30 29 27 24 23 29 29 12 10 23 31 45 46 43 54 59 54 62 60 57 50 40 45 44 350 347 3 22 40 40 22 26 20 13 19 7 21 15 8 355 10 16 13 13 13 24 31 30 30 29 24 43 52 52 58 49
194 324 326 334 336 344 352 357 8 37 47 50 47 47 46 43 38 36 32 27 24 25 22 20 20 20 4 11 17 25 55 113 113 94 73 73 69 72 63 47 34 29 22 14 5 15 38 45 33 24 22 19 24 24 21 17 14 9 8 9 18 17 19 25 30 32 34 38 40 38 47 46 42 60
313 317 325 335 336 332 347 16 29 36 43 44 47 50 48 50 45 41 39 33 29 29 19 14 13 17 6 1 345 349 18 59 88 66 83 36 46 61 74 64 42 30 30 20 15 10 31 45 38 25 31 24 34 27 29 29 17 16 11 3 19 17 19 23 30 34 36 38 43 45 41 46 40 43
343 335 331 326 336 9 18 44 49 50 54 52 47 50 56 53 54 49 45 35 36 30 18 16 11 360 2 1 349 354 5 11 7 13 23 27 7 22 58 64 36 30 33 23 21 15 26 45 38 34 42 35 30 33 25 25 29 22 17 23 9 4 23 24 27 33 40 43 46 49 48 48 47 51
339 340 339 309 317 46 47 49 64 59 43 51 45 42 51 55 55 53 59 55 49 34 25 16 4 352 358 12 17 7 6 5 358 360 5 24 359 353 58 83 55 32 12 18 26 21 22 42 48 38 45 32 35 33 23 28 36 28 25 24 25 42 14 24 27 27 37 50 50 51 49 49 47 48
314 333 22 57 40 36 28 24 25 31 39 45 56 50 43 47 43 44 43 42 39 30 33 24 10 10 6 18 9 8 11 10 7 6 18 9 2 14 12 44 27 48 22 17 22 13 19 36 57 50 52 45 43 17 31 34 34 29 31 25 34 34 24 29 32 32 35 55 54 49 48 49 51 49
11 48 65 57 38 37 43 31 29 28 35 28 34 45 45 40 39 36 48 50 29 13 28 26 23 13 7 14 10 17 13 3 4 7 20 17 19 7 33 30 359 33 108 31 333 340 360 5 40 65 59 52 47 35 32 45 34 26 32 24 28 31 22 24 24 26 24 51 58 53 49 48 50 53
70 56 86 85 86 55 51 48 43 47 50 45 36 25 37 43 42 35 29 31 26 27 28 21 31 18 19 16 13 23 18 355 360 5 29 16 19 31 23 32 16 16 53 176 256 271 319 349 12 40 40 47 57 49 43 52 46 33 30 24 25 35 25 20 26 24 33 35 56 64 52 49 47 48
53 87 97 85 88 89 77 70 63 72 67 62 63 42 40 39 45 44 41 11 17 22 22 15 15 24 34 19 13 32 20 16 1 357 2 18 19 29 21 31 24 17 27 41 11 314 348 360 30 43 27 20 31 31 42 48 69 41 41 34 24 31 23 14 21 24 30 38 40 67 64 54 47 39
15 117 126 117 126 119 79 74 87 81 82 69 84 81 57 36 30 51 29 359 39 11 18 19 12 9 15 22 18 21 19 23 21 10 7 8 15 13 22 13 1 12 25 18 10 12 82 44 64 66 52 24 38 34 32 29 48 56 64 45 27 26 21 21 26 31 33 37 35 58 68 63 53 49
358 138 136 143 156 136 138 121 111 104 102 97 85 98 103 83 33 38 15 70 40 20 356 14 23 6 15 13 26 17 20 33 24 13 14 1 16 27 26 10 0 340 355 339 327 352 40 67 67 87 73 48 46 41 5 310 13 25 92 91 42 26 29 31 42 43 30 36 45 47 65 74 70 57
71 127 111 147 160 152 156 152 118 102 97 104 108 90 96 109 65 10 6 42 24 19 5 9 14 17 16 24 28 17 8 14 28 17 4 19 25 12 23 19 4 360 329 323 336 350 14 61 69 96 97 83 63 37 26 349 352 349 354 107 98 62 39 68 53 55 48 32 57 36 49 67 63 48
219 153 147 151 180 167 149 166 141 142 142 110 117 128 114 87 63 31 25 19 23 31 14 21 18 25 27 15 19 38 40 20 13 358 357 352 22 30 9 18 15 351 14 350 340 350 16 20 62 117 119 114 112 177 180 142 29 339 355 29 125 102 50 97 89 66 63 64 55 50 51 58 90 75
196 145 164 155 154 163 159 162 140 160 149 156 144 156 138 120 108 98 37 6 20 14 48 34 19 26 20 19 14 359 33 33 21 9 358 2 343 2 24 43 51 356 20 11 352 337 1 348 305 143 145 151 162 175 153 149 160 334 9 7 348 156 159 147 108 112 77 83 94 80 67 31 46 354
156 143 181 172 169 153 139 165 163 141 147 164 136 142 163 151 101 99 166 46 77 51 27 11 38 43 9 11 22 42 28 11 3 5 352 13 12 359 353 20 20 23 29 7 0 347 345 327 298 146 116 120 114 80 33 33 26 326 347 339 2 73 157 142 149 145 148 150 112 109 114 133 125 72
152 175 208 160 162 198 160 165 179 141 158 140 124 126 150 173 139 118 97 78 69 60 49 23 27 24 7 9 11 23 29 32 11 354 344 20 20 6 5 17 21 2 34 357 354 326 301 347 7 83 124 122 107 70 99 160 168 271 266 313 344 357 176 187 181 170 154 147 133 120 102 46 50 66
151 175 176 180 157 169 182 151 180 165 166 162 151 144 111 100 74 78 99 85 66 54 36 316 23 36 343 351 359 18 3 352 15 356 332 15 63 34 6 353 343 12 24 329 312 333 352 357 30 24 53 108 129 117 169 203 197 210 252 281 164 51 6 3 2 104 187 213 197 177 168 160 141 193
178 171 194 189 175 173 178 159 160 184 171 179 171 180 143 133 145 198 171 152 148 10 206 205 343 41 323 312 352 354 351 306 326 27 342 327 50 58 25 360 3 4 11 3 355 352 340 1 8 11 9 331 342 108 173 171 199 207 197 213 275 112 173 255 331 349 341 323 317 318 310 215 191 197
199 191 188 201 190 184 159 156 152 159 173 173 161 181 184 158 156 170 205 187 187 199 100 218 248 294 307 315 10 342 305 292 359 3 11 2 24 32 28 24 13 6 1 337 26 349 348 342 342 9 23 338 292 182 180 178 189 192 218 194 214 226 210 191 194 228 248 275 283 315 321 336 353 347